Orbital Elements
Epoch 2021 July 5.0 TT = JDT 2459400.5
T 2021 Feb. 27.61086 TT Rudenko
q 0.9018079 (2000.0) P Q
z +0.0103441 Peri. 72.22481 +0.81187525 -0.43241704
+/-0.0000052 Node 311.27135 +0.08337580 +0.75087273
e 0.9906716 Incl. 31.46076 +0.57784691 +0.49920502
From 351 observations 2021 Feb. 28-May 11, mean residual 0".8.
|